Zurück zum Katalog

STARLINK-3990

AktivKommunikationVLEO
NORAD 52626·PAYLOAD·🇺🇸 United States

Gestartet May 14, 2022 von Cape Canaveral Space Force Station

Loading…

Nächste Überflüge (nächste 24 Stunden)

TLE

AktuellSource: CelesTrak SupGP

Epoche: Sep 14, 2026, 21:12 UTC

1 52626C 22052AE  26257.88381944 -.00018722  00000+0 -55331-3 0  2577
2 52626  53.1591 127.7190 0001007  86.8476 195.8934 15.34391591    12

Verfolge STARLINK-3990 in Echtzeit mit AllMySat

Download on the App Store